INTELSAT 907 (IS-907)

Last updated on Fri Jan 01 2021 06:25:09 GMT+0000 (Greenwich Mean Time)

1 27683U 03007A 20366.91504733 -.00000263 00000-0 00000-0 0 9997 2 27683 0.6544 89.2907 0000700 249.4137 246.2654 0.99162942 65427
UTC large
Height (km)
Speed (km/s)
/
Latitude / Longitude
Inclination (degrees)
Orbital Period (minutes)
Azimuth
Elevation
Range (km)
Doppler Factor

Next 0 passes for location: London (51.5072 / 0.1276)

Sorry there are no passes over London.